When you browse on this site, cookies collect data to enhance your experience and personalize the content and advertising you see.
Visit our Privacy Policy to learn more. By continuing to use the site, you agree to this use of cookies and data.
  • En España
  • Lista de países
  • Para 7 días
  • Temperatura del agua
  • El tiempo en el mapa
  • Informadores
  • user-avatar
    Iniciar sesión

    Tiempo cada hora Mamou

    Hoy, 5 Abril, Domingo

    Tiempo Temperatura Precipitaciones Viento Presión Humedad
    00:00 +32°C° 0 mm 1 mps 731 mmHg 46%
    01:00 +31°C° 0 mm 1 mps 731 mmHg 49%
    02:00 +31°C° 0 mm 2 mps 731 mmHg 53%
    03:00 +30°C° 0 mm 2 mps 730 mmHg 57%
    04:00 +30°C° 0 mm 3 mps 730 mmHg 61%
    05:00 +30°C° 0 mm 3 mps 731 mmHg 63%
    06:00 +30°C° 0 mm 3 mps 732 mmHg 66%
    07:00 +30°C° 0 mm 3 mps 733 mmHg 68%
    08:00 +33°C° 0 mm 3 mps 733 mmHg 61%
    09:00 +34°C° 0 mm 3 mps 733 mmHg 55%
    10:00 +36°C° 0 mm 3 mps 733 mmHg 48%
    11:00 +38°C° 0 mm 3 mps 733 mmHg 40%
    12:00 +42°C° 0 mm 3 mps 732 mmHg 32%
    13:00 +43°C° 0 mm 2 mps 732 mmHg 23%
    14:00 +43°C° 0 mm 2 mps 731 mmHg 21%
    15:00 +44°C° 0 mm 1 mps 730 mmHg 19%
    16:00 +44°C° 0 mm 1 mps 729 mmHg 17%
    17:00 +42°C° 0 mm 1 mps 729 mmHg 19%
    18:00 +40°C° 0 mm 1 mps 729 mmHg 21%
    19:00 +39°C° 0 mm 1 mps 729 mmHg 22%
    20:00 +37°C° 0 mm 1 mps 730 mmHg 23%
    21:00 +37°C° 0 mm 1 mps 730 mmHg 23%
    22:00 +35°C° 0 mm 0 mps 731 mmHg 23%
    23:00 +36°C° 0 mm 1 mps 731 mmHg 24%

    Mañana, 6 Abril, Lunes

    Tiempo Temperatura Precipitaciones Viento Presión Humedad
    00:00 +36°C° 0 mm 1 mps 731 mmHg 25%
    01:00 +35°C° 0 mm 1 mps 731 mmHg 26%
    02:00 +35°C° 0 mm 2 mps 730 mmHg 35%
    03:00 +32°C° 0 mm 2 mps 730 mmHg 43%
    04:00 +31°C° 0 mm 2 mps 730 mmHg 52%
    05:00 +31°C° 0 mm 1 mps 730 mmHg 54%
    06:00 +31°C° 0 mm 1 mps 731 mmHg 55%
    07:00 +30°C° 0 mm 1 mps 732 mmHg 57%
    08:00 +33°C° 0 mm 1 mps 732 mmHg 49%
    09:00 +36°C° 0 mm 2 mps 733 mmHg 41%
    10:00 +39°C° 0 mm 2 mps 733 mmHg 33%
    11:00 +41°C° 0 mm 2 mps 732 mmHg 28%
    12:00 +43°C° 0 mm 2 mps 732 mmHg 23%
    13:00 +46°C° 0 mm 2 mps 731 mmHg 18%
    14:00 +46°C° 0 mm 2 mps 730 mmHg 17%
    15:00 +46°C° 0 mm 2 mps 729 mmHg 16%
    16:00 +46°C° 0 mm 2 mps 728 mmHg 16%
    17:00 +43°C° 0 mm 2 mps 728 mmHg 18%
    18:00 +41°C° 0 mm 1 mps 729 mmHg 20%
    19:00 +39°C° 0 mm 1 mps 729 mmHg 22%
    20:00 +37°C° 0 mm 1 mps 729 mmHg 24%
    21:00 +37°C° 0 mm 2 mps 730 mmHg 26%
    22:00 +36°C° 0 mm 2 mps 730 mmHg 29%
    23:00 +35°C° 0 mm 2 mps 730 mmHg 35%

    Pasado mañana, 7 Abril, Martes

    Tiempo Temperatura Precipitaciones Viento Presión Humedad
    00:00 +34°C° 0 mm 2 mps 730 mmHg 40%
    01:00 +34°C° 0 mm 2 mps 730 mmHg 46%
    02:00 +32°C° 0 mm 1 mps 730 mmHg 49%
    03:00 +31°C° 0 mm 1 mps 729 mmHg 52%
    04:00 +31°C° 0 mm 1 mps 729 mmHg 55%
    05:00 +31°C° 0 mm 2 mps 730 mmHg 56%
    06:00 +31°C° 0 mm 2 mps 730 mmHg 57%
    07:00 +33°C° 0 mm 3 mps 731 mmHg 58%
    08:00 +35°C° 0 mm 3 mps 731 mmHg 53%
    09:00 +37°C° 0 mm 3 mps 732 mmHg 47%
    10:00 +40°C° 0 mm 4 mps 732 mmHg 42%
    11:00 +41°C° 0 mm 4 mps 732 mmHg 36%
    12:00 +43°C° 0 mm 3 mps 731 mmHg 31%
    13:00 +45°C° 0 mm 3 mps 730 mmHg 25%
    14:00 +44°C° 0.1 mm 3 mps 729 mmHg 26%
    15:00 +43°C° 0.1 mm 4 mps 729 mmHg 27%
    16:00 +42°C° 0.1 mm 4 mps 728 mmHg 28%
    17:00 +39°C° 1.8 mm 5 mps 728 mmHg 38%
    18:00 +35°C° 1.8 mm 6 mps 728 mmHg 47%
    19:00 +32°C° 1.8 mm 7 mps 729 mmHg 56%
    20:00 +32°C° 1.1 mm 7 mps 730 mmHg 54%
    21:00 +32°C° 1.1 mm 7 mps 731 mmHg 51%
    22:00 +30°C° 1.1 mm 7 mps 732 mmHg 48%
    23:00 +30°C° 0 mm 5 mps 731 mmHg 46%

    8 Abril, Miércoles

    Tiempo Temperatura Precipitaciones Viento Presión Humedad
    00:00 +32°C° 0 mm 4 mps 731 mmHg 44%
    01:00 +31°C° 0 mm 2 mps 731 mmHg 41%
    02:00 +30°C° 0 mm 2 mps 730 mmHg 45%
    03:00 +29°C° 0 mm 1 mps 730 mmHg 50%
    04:00 +29°C° 0 mm 1 mps 730 mmHg 54%
    05:00 +29°C° 0 mm 1 mps 730 mmHg 55%
    06:00 +29°C° 0 mm 1 mps 731 mmHg 57%
    07:00 +29°C° 0 mm 1 mps 731 mmHg 59%
    08:00 +31°C° 0 mm 2 mps 732 mmHg 54%
    09:00 +34°C° 0 mm 3 mps 732 mmHg 50%
    10:00 +36°C° 0 mm 4 mps 732 mmHg 45%
    11:00 +38°C° 0 mm 3 mps 732 mmHg 40%
    12:00 +40°C° 0 mm 3 mps 731 mmHg 35%
    13:00 +41°C° 0 mm 2 mps 730 mmHg 30%
    14:00 +42°C° 0 mm 3 mps 730 mmHg 28%
    15:00 +43°C° 0 mm 3 mps 729 mmHg 27%
    16:00 +43°C° 0 mm 3 mps 728 mmHg 25%
    17:00 +40°C° 0.1 mm 3 mps 728 mmHg 27%
    18:00 +39°C° 0.1 mm 2 mps 728 mmHg 29%
    19:00 +37°C° 0.1 mm 2 mps 728 mmHg 31%
    20:00 +36°C° 0 mm 2 mps 729 mmHg 34%
    21:00 +36°C° 0 mm 2 mps 729 mmHg 37%
    22:00 +34°C° 0 mm 1 mps 730 mmHg 41%
    23:00 +34°C° 0 mm 2 mps 730 mmHg 44%

    9 Abril, Jueves

    Tiempo Temperatura Precipitaciones Viento Presión Humedad
    00:00 +34°C° 0 mm 2 mps 730 mmHg 46%
    01:00 +32°C° 0 mm 2 mps 730 mmHg 49%
    02:00 +32°C° 0 mm 2 mps 730 mmHg 52%
    03:00 +31°C° 0 mm 2 mps 730 mmHg 54%
    04:00 +31°C° 0 mm 2 mps 730 mmHg 56%
    05:00 +31°C° 0 mm 2 mps 730 mmHg 57%
    06:00 +31°C° 0 mm 2 mps 731 mmHg 57%
    07:00 +31°C° 0 mm 2 mps 731 mmHg 57%
    08:00 +32°C° 0 mm 2 mps 732 mmHg 51%
    09:00 +35°C° 0 mm 2 mps 732 mmHg 45%
    10:00 +37°C° 0 mm 3 mps 733 mmHg 40%
    11:00 +38°C° 0 mm 3 mps 732 mmHg 35%
    12:00 +40°C° 0 mm 2 mps 731 mmHg 30%
    13:00 +42°C° 0 mm 2 mps 730 mmHg 26%
    14:00 +42°C° 0 mm 3 mps 730 mmHg 26%
    15:00 +42°C° 0 mm 3 mps 729 mmHg 26%
    16:00 +42°C° 0 mm 4 mps 728 mmHg 26%
    17:00 +39°C° 0.1 mm 3 mps 728 mmHg 28%
    18:00 +38°C° 0.1 mm 2 mps 728 mmHg 30%
    19:00 +36°C° 0.1 mm 1 mps 729 mmHg 31%
    20:00 +36°C° 0 mm 2 mps 730 mmHg 33%
    21:00 +36°C° 0 mm 2 mps 731 mmHg 34%
    22:00 +36°C° 0 mm 3 mps 731 mmHg 36%
    23:00 +34°C° 0.2 mm 3 mps 731 mmHg 44%

    10 Abril, Viernes

    Tiempo Temperatura Precipitaciones Viento Presión Humedad
    00:00 +31°C° 0.2 mm 3 mps 731 mmHg 53%
    01:00 +29°C° 0.2 mm 4 mps 731 mmHg 62%
    02:00 +30°C° 0 mm 3 mps 731 mmHg 61%
    03:00 +30°C° 0 mm 3 mps 731 mmHg 60%
    04:00 +30°C° 0 mm 2 mps 731 mmHg 58%
    05:00 +30°C° 0 mm 2 mps 732 mmHg 58%
    06:00 +30°C° 0 mm 1 mps 732 mmHg 57%
    07:00 +30°C° 0 mm 1 mps 732 mmHg 57%
    08:00 +32°C° 0 mm 1 mps 732 mmHg 51%
    09:00 +35°C° 0 mm 2 mps 733 mmHg 44%
    10:00 +36°C° 0 mm 2 mps 734 mmHg 38%
    11:00 +38°C° 0 mm 2 mps 733 mmHg 33%
    12:00 +40°C° 0 mm 2 mps 732 mmHg 27%
    13:00 +41°C° 0 mm 2 mps 731 mmHg 22%
    14:00 +42°C° 0 mm 2 mps 731 mmHg 20%
    15:00 +42°C° 0 mm 2 mps 730 mmHg 18%
    16:00 +42°C° 0 mm 2 mps 730 mmHg 16%
    17:00 +41°C° 0 mm 2 mps 730 mmHg 18%
    18:00 +40°C° 0 mm 2 mps 730 mmHg 19%
    19:00 +39°C° 0 mm 2 mps 730 mmHg 21%
    20:00 +37°C° 0 mm 2 mps 731 mmHg 19%
    21:00 +36°C° 0 mm 2 mps 731 mmHg 18%
    22:00 +35°C° 0 mm 2 mps 731 mmHg 16%
    23:00 +34°C° 0 mm 2 mps 731 mmHg 16%
    Mostrar más